Time,TemperatureF,DewpointF,PressureIn,WindDirection,WindDirectionDegrees,WindSpeedMPH,WindSpeedGustMPH,Humidity,HourlyPrecipIn,Conditions,Clouds,dailyrainin,SoftwareType,DateUTC
2013-03-27 00:03:00,32.5,21.0,30.15,North,0,5.0,6.0,62,0.00,,,0.00,meteohub,2013-03-27 05:03:00,
2013-03-27 00:08:00,32.7,21.6,30.15,West,270,4.0,6.0,63,0.00,,,0.00,meteohub,2013-03-27 05:08:00,
2013-03-27 00:13:00,32.5,21.4,30.15,North,0,4.0,6.0,63,0.00,,,0.00,meteohub,2013-03-27 05:13:00,
2013-03-27 00:18:00,32.5,21.4,30.15,West,270,4.0,6.0,63,0.00,,,0.00,meteohub,2013-03-27 05:18:00,
2013-03-27 00:24:00,32.5,21.4,30.15,NW,315,3.0,6.0,63,0.00,,,0.00,meteohub,2013-03-27 05:24:00,
2013-03-27 00:29:00,32.5,21.4,30.15,North,0,4.0,5.0,63,0.00,,,0.00,meteohub,2013-03-27 05:29:00,
2013-03-27 00:34:00,32.5,21.4,30.15,NW,315,2.0,5.0,63,0.00,,,0.00,meteohub,2013-03-27 05:34:00,
2013-03-27 00:39:00,32.4,21.2,30.16,NW,315,3.0,5.0,63,0.00,,,0.00,meteohub,2013-03-27 05:39:00,
2013-03-27 00:44:00,32.4,21.2,30.16,NW,315,2.0,4.0,63,0.00,,,0.00,meteohub,2013-03-27 05:44:00,
2013-03-27 00:49:00,32.4,21.6,30.16,North,0,2.0,4.0,64,0.00,,,0.00,meteohub,2013-03-27 05:49:00,
2013-03-27 00:54:00,32.4,21.6,30.16,North,0,4.0,4.0,64,0.00,,,0.00,meteohub,2013-03-27 05:54:00,
2013-03-27 00:59:00,32.2,21.4,30.16,NW,315,3.0,5.0,64,0.00,,,0.00,meteohub,2013-03-27 05:59:00,
2013-03-27 01:05:00,32.2,21.4,30.16,NW,315,3.0,5.0,64,0.00,,,0.00,meteohub,2013-03-27 06:05:00,
2013-03-27 01:10:00,32.2,21.7,30.16,NW,315,2.0,5.0,65,0.00,,,0.00,meteohub,2013-03-27 06:10:00,
2013-03-27 01:15:00,32.0,21.6,30.16,SW,225,2.0,3.0,65,0.00,,,0.00,meteohub,2013-03-27 06:15:00,
2013-03-27 01:20:00,32.0,21.6,30.16,NW,315,3.0,4.0,65,0.00,,,0.00,meteohub,2013-03-27 06:20:00,
2013-03-27 01:25:00,32.0,21.6,30.17,North,0,3.0,4.0,65,0.00,,,0.00,meteohub,2013-03-27 06:25:00,
2013-03-27 01:30:00,32.0,21.9,30.17,North,0,2.0,5.0,66,0.00,,,0.00,meteohub,2013-03-27 06:30:00,
2013-03-27 01:35:00,31.8,22.1,30.16,NW,315,4.0,5.0,67,0.00,,,0.00,meteohub,2013-03-27 06:35:00,
2013-03-27 01:41:00,31.8,22.1,30.17,West,270,4.0,5.0,67,0.00,,,0.00,meteohub,2013-03-27 06:41:00,
2013-03-27 01:46:00,31.8,22.1,30.17,NW,315,3.0,4.0,67,0.00,,,0.00,meteohub,2013-03-27 06:46:00,
2013-03-27 01:51:00,31.8,22.1,30.17,NW,315,2.0,4.0,67,0.00,,,0.00,meteohub,2013-03-27 06:51:00,
2013-03-27 01:56:00,31.8,22.5,30.16,West,270,5.0,5.0,68,0.00,,,0.00,meteohub,2013-03-27 06:56:00,
2013-03-27 02:02:00,31.8,22.5,30.16,NW,315,3.0,5.0,68,0.00,,,0.00,meteohub,2013-03-27 07:02:00,
2013-03-27 02:07:00,31.8,22.5,30.16,NW,315,3.0,5.0,68,0.00,,,0.00,meteohub,2013-03-27 07:07:00,
2013-03-27 02:12:00,31.6,22.3,30.16,West,270,4.0,5.0,68,0.00,,,0.00,meteohub,2013-03-27 07:12:00,
2013-03-27 02:17:00,31.6,22.3,30.16,NW,315,2.0,5.0,68,0.00,,,0.00,meteohub,2013-03-27 07:17:00,
2013-03-27 02:22:00,31.5,22.1,30.16,NW,315,3.0,5.0,68,0.00,,,0.00,meteohub,2013-03-27 07:22:00,
2013-03-27 02:28:00,31.5,22.5,30.17,NW,315,2.0,5.0,69,0.00,,,0.00,meteohub,2013-03-27 07:28:00,
2013-03-27 02:33:00,31.5,22.5,30.16,NW,315,4.0,5.0,69,0.00,,,0.00,meteohub,2013-03-27 07:33:00,
2013-03-27 02:38:00,31.5,22.5,30.17,NW,315,2.0,5.0,69,0.00,,,0.00,meteohub,2013-03-27 07:38:00,
2013-03-27 02:43:00,31.5,22.5,30.16,NW,315,4.0,4.0,69,0.00,,,0.00,meteohub,2013-03-27 07:43:00,
2013-03-27 02:48:00,31.5,22.5,30.16,West,270,4.0,4.0,69,0.00,,,0.00,meteohub,2013-03-27 07:48:00,
2013-03-27 02:53:00,31.5,22.5,30.16,NW,315,3.0,4.0,69,0.00,,,0.00,meteohub,2013-03-27 07:53:00,
2013-03-27 02:59:00,31.5,22.5,30.16,West,270,4.0,4.0,69,0.00,,,0.00,meteohub,2013-03-27 07:59:00,
2013-03-27 03:04:00,31.5,22.5,30.16,NW,315,3.0,4.0,69,0.00,,,0.00,meteohub,2013-03-27 08:04:00,
2013-03-27 03:09:00,31.3,22.6,30.16,North,0,4.0,4.0,70,0.00,,,0.00,meteohub,2013-03-27 08:09:00,
2013-03-27 03:14:00,31.3,22.6,30.16,West,270,4.0,4.0,70,0.00,,,0.00,meteohub,2013-03-27 08:14:00,
2013-03-27 03:19:00,31.3,22.6,30.16,NW,315,4.0,6.0,70,0.00,,,0.00,meteohub,2013-03-27 08:19:00,
2013-03-27 03:24:00,31.3,22.6,30.15,NW,315,3.0,7.0,70,0.00,,,0.00,meteohub,2013-03-27 08:24:00,
2013-03-27 03:29:00,31.1,22.5,30.16,NW,315,4.0,7.0,70,0.00,,,0.00,meteohub,2013-03-27 08:29:00,
2013-03-27 03:34:00,31.3,22.6,30.15,NW,315,5.0,7.0,70,0.00,,,0.00,meteohub,2013-03-27 08:34:00,
2013-03-27 03:40:00,31.1,22.5,30.15,NW,315,4.0,6.0,70,0.00,,,0.00,meteohub,2013-03-27 08:40:00,
2013-03-27 03:45:00,31.1,22.5,30.15,NW,315,4.0,6.0,70,0.00,,,0.00,meteohub,2013-03-27 08:45:00,
2013-03-27 03:50:00,31.1,22.5,30.15,NW,315,3.0,6.0,70,0.00,,,0.00,meteohub,2013-03-27 08:50:00,
2013-03-27 03:55:00,30.9,22.3,30.15,NW,315,3.0,4.0,70,0.00,,,0.00,meteohub,2013-03-27 08:55:00,
2013-03-27 04:00:00,30.9,22.3,30.15,NW,315,2.0,4.0,70,0.00,,,0.00,meteohub,2013-03-27 09:00:00,
2013-03-27 04:05:00,30.7,22.1,30.15,NW,315,4.0,4.0,70,0.00,,,0.00,meteohub,2013-03-27 09:05:00,
2013-03-27 04:10:00,30.6,21.9,30.15,North,0,3.0,4.0,70,0.00,,,0.00,meteohub,2013-03-27 09:10:00,
2013-03-27 04:15:00,30.6,21.9,30.15,NW,315,3.0,4.0,70,0.00,,,0.00,meteohub,2013-03-27 09:15:00,
2013-03-27 04:20:00,30.6,22.3,30.15,NW,315,2.0,4.0,71,0.00,,,0.00,meteohub,2013-03-27 09:20:00,
2013-03-27 04:25:00,30.4,22.1,30.15,NW,315,2.0,4.0,71,0.00,,,0.00,meteohub,2013-03-27 09:25:00,
2013-03-27 04:30:00,30.4,22.1,30.15,North,0,2.0,4.0,71,0.00,,,0.00,meteohub,2013-03-27 09:30:00,
2013-03-27 04:36:00,30.4,22.1,30.15,North,0,4.0,4.0,71,0.00,,,0.00,meteohub,2013-03-27 09:36:00,
2013-03-27 04:41:00,30.4,22.1,30.15,NW,315,3.0,4.0,71,0.00,,,0.00,meteohub,2013-03-27 09:41:00,
2013-03-27 04:46:00,30.4,22.1,30.15,NW,315,5.0,5.0,71,0.00,,,0.00,meteohub,2013-03-27 09:46:00,
2013-03-27 04:51:00,30.4,22.1,30.15,West,270,4.0,5.0,71,0.00,,,0.00,meteohub,2013-03-27 09:51:00,
2013-03-27 04:56:00,30.4,22.1,30.15,NW,315,2.0,5.0,71,0.00,,,0.00,meteohub,2013-03-27 09:56:00,
2013-03-27 05:01:00,30.4,22.1,30.16,NW,315,2.0,5.0,71,0.00,,,0.00,meteohub,2013-03-27 10:01:00,
2013-03-27 05:06:00,30.2,22.3,30.15,North,0,4.0,5.0,72,0.00,,,0.00,meteohub,2013-03-27 10:06:00,
2013-03-27 05:11:00,30.2,22.3,30.16,NW,315,2.0,4.0,72,0.00,,,0.00,meteohub,2013-03-27 10:11:00,
2013-03-27 05:16:00,30.2,22.3,30.15,NW,315,4.0,4.0,72,0.00,,,0.00,meteohub,2013-03-27 10:16:00,
2013-03-27 05:21:00,30.0,22.5,30.15,NW,315,2.0,4.0,73,0.00,,,0.00,meteohub,2013-03-27 10:21:00,
2013-03-27 05:26:00,30.0,22.5,30.15,NW,315,4.0,4.0,73,0.00,,,0.00,meteohub,2013-03-27 10:26:00,
2013-03-27 05:32:00,30.0,22.5,30.15,NW,315,3.0,4.0,73,0.00,,,0.00,meteohub,2013-03-27 10:32:00,
2013-03-27 05:37:00,30.0,22.5,30.15,NW,315,2.0,4.0,73,0.00,,,0.00,meteohub,2013-03-27 10:37:00,
2013-03-27 05:42:00,29.8,22.3,30.16,NW,315,3.0,4.0,73,0.00,,,0.00,meteohub,2013-03-27 10:42:00,
2013-03-27 05:47:00,29.8,22.3,30.16,NW,315,2.0,4.0,73,0.00,,,0.00,meteohub,2013-03-27 10:47:00,
2013-03-27 05:52:00,29.8,22.3,30.16,NW,315,4.0,4.0,73,0.00,,,0.00,meteohub,2013-03-27 10:52:00,
2013-03-27 05:57:00,29.8,22.3,30.16,NW,315,2.0,4.0,73,0.00,,,0.00,meteohub,2013-03-27 10:57:00,
2013-03-27 06:02:00,29.7,22.1,30.16,NW,315,5.0,5.0,73,0.00,,,0.00,meteohub,2013-03-27 11:02:00,
2013-03-27 06:07:00,29.7,22.1,30.16,NW,315,4.0,5.0,73,0.00,,,0.00,meteohub,2013-03-27 11:07:00,
2013-03-27 06:12:00,29.7,22.5,30.16,NW,315,3.0,5.0,74,0.00,,,0.00,meteohub,2013-03-27 11:12:00,
2013-03-27 06:17:00,29.5,22.3,30.17,NW,315,3.0,5.0,74,0.00,,,0.00,meteohub,2013-03-27 11:17:00,
2013-03-27 06:23:00,29.5,22.3,30.17,NW,315,2.0,4.0,74,0.00,,,0.00,meteohub,2013-03-27 11:23:00,
2013-03-27 06:28:00,29.3,22.1,30.17,North,0,4.0,4.0,74,0.00,,,0.00,meteohub,2013-03-27 11:28:00,
2013-03-27 06:33:00,29.3,21.7,30.17,NW,315,3.0,4.0,73,0.00,,,0.00,meteohub,2013-03-27 11:33:00,
2013-03-27 06:38:00,29.3,21.7,30.17,NW,315,4.0,4.0,73,0.00,,,0.00,meteohub,2013-03-27 11:38:00,
2013-03-27 06:43:00,29.3,21.7,30.16,NW,315,4.0,5.0,73,0.00,,,0.00,meteohub,2013-03-27 11:43:00,
2013-03-27 06:48:00,29.3,21.7,30.17,NW,315,3.0,5.0,73,0.00,,,0.00,meteohub,2013-03-27 11:48:00,
2013-03-27 06:53:00,29.3,21.7,30.17,North,0,4.0,5.0,73,0.00,,,0.00,meteohub,2013-03-27 11:53:00,
2013-03-27 06:58:00,29.1,21.6,30.17,NW,315,4.0,5.0,73,0.00,,,0.00,meteohub,2013-03-27 11:58:00,
2013-03-27 07:03:00,29.3,21.7,30.17,West,270,5.0,5.0,73,0.00,,,0.00,meteohub,2013-03-27 12:03:00,
2013-03-27 07:09:00,29.3,21.7,30.17,NW,315,4.0,5.0,73,0.00,,,0.00,meteohub,2013-03-27 12:09:00,
2013-03-27 07:14:00,29.3,21.4,30.17,NW,315,4.0,5.0,72,0.00,,,0.00,meteohub,2013-03-27 12:14:00,
2013-03-27 07:19:00,29.5,21.6,30.17,NW,315,3.0,5.0,72,0.00,,,0.00,meteohub,2013-03-27 12:19:00,
2013-03-27 07:24:00,29.5,21.6,30.18,NW,315,3.0,5.0,72,0.00,,,0.00,meteohub,2013-03-27 12:24:00,
2013-03-27 07:29:00,29.5,21.6,30.18,NW,315,6.0,6.0,72,0.00,,,0.00,meteohub,2013-03-27 12:29:00,
2013-03-27 07:34:00,29.5,21.6,30.18,West,270,4.0,6.0,72,0.00,,,0.00,meteohub,2013-03-27 12:34:00,
2013-03-27 07:40:00,29.7,21.7,30.18,NW,315,2.0,6.0,72,0.00,,,0.00,meteohub,2013-03-27 12:40:00,
2013-03-27 07:45:00,29.7,21.7,30.18,NW,315,3.0,6.0,72,0.00,,,0.00,meteohub,2013-03-27 12:45:00,
2013-03-27 07:50:00,29.8,21.9,30.18,NW,315,2.0,5.0,72,0.00,,,0.00,meteohub,2013-03-27 12:50:00,
2013-03-27 07:55:00,29.8,21.9,30.19,NW,315,4.0,5.0,72,0.00,,,0.00,meteohub,2013-03-27 12:55:00,
2013-03-27 08:00:00,30.0,21.7,30.18,NW,315,4.0,5.0,71,0.00,,,0.00,meteohub,2013-03-27 13:00:00,
2013-03-27 08:05:00,30.2,21.6,30.19,North,0,6.0,6.0,70,0.00,,,0.00,meteohub,2013-03-27 13:05:00,
2013-03-27 08:11:00,30.2,21.2,30.19,West,270,4.0,6.0,69,0.00,,,0.00,meteohub,2013-03-27 13:11:00,
2013-03-27 08:16:00,30.4,21.4,30.18,West,270,4.0,8.0,69,0.00,,,0.00,meteohub,2013-03-27 13:16:00,
2013-03-27 08:21:00,30.6,21.6,30.18,West,270,3.0,8.0,69,0.00,,,0.00,meteohub,2013-03-27 13:21:00,
2013-03-27 08:26:00,30.7,21.7,30.19,West,270,6.0,8.0,69,0.00,,,0.00,meteohub,2013-03-27 13:26:00,
2013-03-27 08:31:00,30.9,21.6,30.18,North,0,5.0,8.0,68,0.00,,,0.00,meteohub,2013-03-27 13:31:00,
2013-03-27 08:36:00,30.9,21.6,30.19,North,0,4.0,8.0,68,0.00,,,0.00,meteohub,2013-03-27 13:36:00,
2013-03-27 08:41:00,30.9,21.6,30.19,West,270,5.0,8.0,68,0.00,,,0.00,meteohub,2013-03-27 13:41:00,
2013-03-27 08:47:00,30.9,21.6,30.19,NW,315,4.0,6.0,68,0.00,,,0.00,meteohub,2013-03-27 13:47:00,
2013-03-27 08:52:00,31.1,21.7,30.19,West,270,3.0,6.0,68,0.00,,,0.00,meteohub,2013-03-27 13:52:00,
2013-03-27 08:57:00,31.3,21.9,30.19,NW,315,5.0,6.0,68,0.00,,,0.00,meteohub,2013-03-27 13:57:00,
2013-03-27 09:02:00,31.5,22.1,30.19,NW,315,4.0,5.0,68,0.00,,,0.00,meteohub,2013-03-27 14:02:00,
2013-03-27 09:07:00,31.8,22.5,30.19,NW,315,6.0,6.0,68,0.00,,,0.00,meteohub,2013-03-27 14:07:00,
2013-03-27 09:12:00,32.0,22.3,30.19,NW,315,5.0,6.0,67,0.00,,,0.00,meteohub,2013-03-27 14:12:00,
2013-03-27 09:17:00,32.4,22.3,30.19,NW,315,4.0,6.0,66,0.00,,,0.00,meteohub,2013-03-27 14:17:00,
2013-03-27 09:23:00,32.5,22.5,30.19,NW,315,3.0,6.0,66,0.00,,,0.00,meteohub,2013-03-27 14:23:00,
2013-03-27 09:28:00,32.7,22.3,30.19,NW,315,2.0,5.0,65,0.00,,,0.00,meteohub,2013-03-27 14:28:00,
2013-03-27 09:33:00,32.9,22.5,30.20,West,270,7.0,7.0,65,0.00,,,0.00,meteohub,2013-03-27 14:33:00,
2013-03-27 09:38:00,32.9,22.1,30.20,North,0,4.0,7.0,64,0.00,,,0.00,meteohub,2013-03-27 14:38:00,
2013-03-27 09:43:00,33.1,22.3,30.20,West,270,6.0,7.0,64,0.00,,,0.00,meteohub,2013-03-27 14:43:00,
2013-03-27 09:48:00,33.4,22.3,30.20,NW,315,5.0,8.0,63,0.00,,,0.00,meteohub,2013-03-27 14:48:00,
2013-03-27 09:53:00,33.6,22.5,30.20,West,270,6.0,8.0,63,0.00,,,0.00,meteohub,2013-03-27 14:53:00,
2013-03-27 09:58:00,34.2,22.5,30.20,NW,315,7.0,8.0,62,0.00,,,0.00,meteohub,2013-03-27 14:58:00,
2013-03-27 10:04:00,34.2,22.5,30.21,NW,315,5.0,8.0,62,0.00,,,0.00,meteohub,2013-03-27 15:04:00,
2013-03-27 10:09:00,34.3,22.3,30.21,NW,315,4.0,7.0,61,0.00,,,0.00,meteohub,2013-03-27 15:09:00,
2013-03-27 10:14:00,34.5,22.1,30.22,NW,315,5.0,7.0,60,0.00,,,0.00,meteohub,2013-03-27 15:14:00,
2013-03-27 10:19:00,35.1,23.0,30.21,North,0,6.0,7.0,61,0.00,,,0.00,meteohub,2013-03-27 15:19:00,
2013-03-27 10:24:00,35.8,22.8,30.22,West,270,4.0,7.0,59,0.00,,,0.00,meteohub,2013-03-27 15:24:00,
2013-03-27 10:29:00,36.3,22.1,30.22,North,0,4.0,7.0,56,0.00,,,0.00,meteohub,2013-03-27 15:29:00,
2013-03-27 10:34:00,36.3,22.1,30.22,NW,315,5.0,7.0,56,0.00,,,0.00,meteohub,2013-03-27 15:34:00,
2013-03-27 10:39:00,37.4,24.8,30.22,West,270,4.0,7.0,60,0.00,,,0.00,meteohub,2013-03-27 15:39:00,
2013-03-27 10:44:00,37.8,24.3,30.22,NW,315,6.0,7.0,58,0.00,,,0.00,meteohub,2013-03-27 15:44:00,
2013-03-27 10:49:00,38.3,24.4,30.22,SW,225,3.0,8.0,57,0.00,,,0.00,meteohub,2013-03-27 15:49:00,
2013-03-27 10:54:00,39.2,24.8,30.22,NW,315,4.0,8.0,56,0.00,,,0.00,meteohub,2013-03-27 15:54:00,
2013-03-27 11:00:00,39.4,24.1,30.22,West,270,8.0,8.0,54,0.00,,,0.00,meteohub,2013-03-27 16:00:00,
2013-03-27 11:05:00,39.6,23.4,30.22,West,270,6.0,8.0,52,0.00,,,0.00,meteohub,2013-03-27 16:05:00,
2013-03-27 11:10:00,39.9,21.4,30.23,NW,315,3.0,8.0,47,0.00,,,0.00,meteohub,2013-03-27 16:10:00,
2013-03-27 11:16:00,40.5,20.8,30.23,NW,315,3.0,8.0,45,0.00,,,0.00,meteohub,2013-03-27 16:16:00,
2013-03-27 11:21:00,40.6,18.9,30.23,NW,315,4.0,8.0,41,0.00,,,0.00,meteohub,2013-03-27 16:21:00,
2013-03-27 11:26:00,41.2,19.2,30.24,West,270,7.0,7.0,41,0.00,,,0.00,meteohub,2013-03-27 16:26:00,
2013-03-27 11:31:00,41.2,16.2,30.24,West,270,4.0,8.0,36,0.00,,,0.00,meteohub,2013-03-27 16:31:00,
2013-03-27 11:36:00,41.9,17.6,30.24,North,0,8.0,8.0,37,0.00,,,0.00,meteohub,2013-03-27 16:36:00,
2013-03-27 11:42:00,40.3,14.2,30.25,NW,315,6.0,9.0,34,0.00,,,0.00,meteohub,2013-03-27 16:42:00,
2013-03-27 11:47:00,39.4,13.3,30.25,NW,315,4.0,9.0,34,0.00,,,0.00,meteohub,2013-03-27 16:47:00,
2013-03-27 11:52:00,38.8,12.2,30.25,NW,315,7.0,11.0,33,0.00,,,0.00,meteohub,2013-03-27 16:52:00,
2013-03-27 11:57:00,39.2,12.6,30.25,West,270,4.0,11.0,33,0.00,,,0.00,meteohub,2013-03-27 16:57:00,
2013-03-27 12:02:00,40.8,14.5,30.25,West,270,4.0,11.0,34,0.00,,,0.00,meteohub,2013-03-27 17:02:00,
2013-03-27 12:07:00,41.2,13.5,30.25,West,270,8.0,8.0,32,0.00,,,0.00,meteohub,2013-03-27 17:07:00,
2013-03-27 12:12:00,41.0,12.7,30.25,SW,225,5.0,10.0,31,0.00,,,0.00,meteohub,2013-03-27 17:12:00,
2013-03-27 12:18:00,40.8,14.5,30.25,NW,315,5.0,10.0,34,0.00,,,0.00,meteohub,2013-03-27 17:18:00,
2013-03-27 12:23:00,41.4,15.1,30.25,West,270,4.0,10.0,34,0.00,,,0.00,meteohub,2013-03-27 17:23:00,
2013-03-27 12:28:00,41.7,15.4,30.25,SW,225,7.0,10.0,34,0.00,,,0.00,meteohub,2013-03-27 17:28:00,
2013-03-27 12:33:00,41.9,15.6,30.25,WNW,293,9.0,9.0,34,0.00,,,0.00,meteohub,2013-03-27 17:33:00,
2013-03-27 12:38:00,42.1,15.8,30.25,NW,315,10.0,10.0,34,0.00,,,0.00,meteohub,2013-03-27 17:38:00,
2013-03-27 12:43:00,42.4,16.7,30.25,West,270,5.0,10.0,35,0.00,,,0.00,meteohub,2013-03-27 17:43:00,
2013-03-27 12:48:00,42.4,15.4,30.25,West,270,11.0,11.0,33,0.00,,,0.00,meteohub,2013-03-27 17:48:00,
2013-03-27 12:54:00,41.7,13.3,30.25,WSW,248,7.0,11.0,31,0.00,,,0.00,meteohub,2013-03-27 17:54:00,
2013-03-27 12:59:00,41.7,14.0,30.25,East,90,4.0,11.0,32,0.00,,,0.00,meteohub,2013-03-27 17:59:00,
2013-03-27 13:04:00,42.1,14.4,30.25,SW,225,5.0,11.0,32,0.00,,,0.00,meteohub,2013-03-27 18:04:00,
2013-03-27 13:09:00,41.9,14.2,30.24,NW,315,6.0,8.0,32,0.00,,,0.00,meteohub,2013-03-27 18:09:00,
2013-03-27 13:14:00,41.5,13.8,30.25,North,0,9.0,9.0,32,0.00,,,0.00,meteohub,2013-03-27 18:14:00,
2013-03-27 13:19:00,41.4,14.4,30.25,SW,225,5.0,11.0,33,0.00,,,0.00,meteohub,2013-03-27 18:19:00,
2013-03-27 13:25:00,41.9,14.9,30.24,NE,45,4.0,11.0,33,0.00,,,0.00,meteohub,2013-03-27 18:25:00,
2013-03-27 13:30:00,42.3,15.8,30.25,North,0,6.0,11.0,34,0.00,,,0.00,meteohub,2013-03-27 18:30:00,
2013-03-27 13:35:00,42.4,16.0,30.24,NW,315,10.0,10.0,34,0.00,,,0.00,meteohub,2013-03-27 18:35:00,
2013-03-27 13:40:00,42.4,16.0,30.25,West,270,4.0,10.0,34,0.00,,,0.00,meteohub,2013-03-27 18:40:00,
2013-03-27 13:45:00,42.6,15.4,30.24,NE,45,9.0,10.0,33,0.00,,,0.00,meteohub,2013-03-27 18:45:00,
2013-03-27 13:50:00,42.1,14.4,30.24,SE,135,4.0,10.0,32,0.00,,,0.00,meteohub,2013-03-27 18:50:00,
2013-03-27 13:56:00,42.4,15.4,30.24,NW,315,6.0,9.0,33,0.00,,,0.00,meteohub,2013-03-27 18:56:00,
2013-03-27 14:01:00,42.3,15.3,30.24,SW,225,5.0,9.0,33,0.00,,,0.00,meteohub,2013-03-27 19:01:00,
2013-03-27 14:06:00,41.4,13.6,30.24,East,90,2.0,11.0,32,0.00,,,0.00,meteohub,2013-03-27 19:06:00,
2013-03-27 14:11:00,42.4,16.7,30.24,NE,45,8.0,11.0,35,0.00,,,0.00,meteohub,2013-03-27 19:11:00,
2013-03-27 14:16:00,42.4,15.4,30.24,NW,315,5.0,11.0,33,0.00,,,0.00,meteohub,2013-03-27 19:16:00,
2013-03-27 14:21:00,42.3,15.8,30.24,North,0,7.0,12.0,34,0.00,,,0.00,meteohub,2013-03-27 19:21:00,
2013-03-27 14:27:00,42.4,17.4,30.24,North,0,11.0,12.0,36,0.00,,,0.00,meteohub,2013-03-27 19:27:00,
2013-03-27 14:32:00,41.9,16.2,30.23,NE,45,8.0,12.0,35,0.00,,,0.00,meteohub,2013-03-27 19:32:00,
2013-03-27 14:37:00,42.3,16.5,30.23,West,270,5.0,11.0,35,0.00,,,0.00,meteohub,2013-03-27 19:37:00,
2013-03-27 14:42:00,43.5,19.0,30.23,NW,315,10.0,11.0,37,0.00,,,0.00,meteohub,2013-03-27 19:42:00,
2013-03-27 14:47:00,44.1,18.9,30.23,North,0,11.0,11.0,36,0.00,,,0.00,meteohub,2013-03-27 19:47:00,
2013-03-27 14:52:00,43.7,17.2,30.23,NW,315,5.0,11.0,34,0.00,,,0.00,meteohub,2013-03-27 19:52:00,
2013-03-27 14:57:00,43.2,16.7,30.23,NW,315,12.0,12.0,34,0.00,,,0.00,meteohub,2013-03-27 19:57:00,
2013-03-27 15:02:00,42.6,16.2,30.23,North,0,8.0,12.0,34,0.00,,,0.00,meteohub,2013-03-27 20:02:00,
2013-03-27 15:07:00,42.6,16.2,30.23,West,270,5.0,12.0,34,0.00,,,0.00,meteohub,2013-03-27 20:07:00,
2013-03-27 15:13:00,43.0,15.8,30.23,SW,225,7.0,12.0,33,0.00,,,0.00,meteohub,2013-03-27 20:13:00,
2013-03-27 15:18:00,43.5,16.3,30.22,East,90,6.0,11.0,33,0.00,,,0.00,meteohub,2013-03-27 20:18:00,
2013-03-27 15:23:00,43.3,16.9,30.22,East,90,2.0,9.0,34,0.00,,,0.00,meteohub,2013-03-27 20:23:00,
2013-03-27 15:28:00,43.3,16.2,30.22,West,270,5.0,8.0,33,0.00,,,0.00,meteohub,2013-03-27 20:28:00,
2013-03-27 15:33:00,43.3,16.9,30.22,NW,315,6.0,8.0,34,0.00,,,0.00,meteohub,2013-03-27 20:33:00,
2013-03-27 15:39:00,43.5,17.1,30.22,NW,315,8.0,11.0,34,0.00,,,0.00,meteohub,2013-03-27 20:39:00,
2013-03-27 15:44:00,43.2,16.7,30.22,NW,315,8.0,11.0,34,0.00,,,0.00,meteohub,2013-03-27 20:44:00,
2013-03-27 15:49:00,43.2,16.7,30.22,NW,315,4.0,10.0,34,0.00,,,0.00,meteohub,2013-03-27 20:49:00,
2013-03-27 15:54:00,43.7,17.2,30.22,NW,315,4.0,10.0,34,0.00,,,0.00,meteohub,2013-03-27 20:54:00,
2013-03-27 15:59:00,43.7,17.2,30.22,SW,225,5.0,8.0,34,0.00,,,0.00,meteohub,2013-03-27 20:59:00,
2013-03-27 16:04:00,44.1,18.1,30.22,NW,315,8.0,11.0,35,0.00,,,0.00,meteohub,2013-03-27 21:04:00,
2013-03-27 16:09:00,44.1,17.4,30.22,West,270,8.0,11.0,34,0.00,,,0.00,meteohub,2013-03-27 21:09:00,
2013-03-27 16:14:00,43.5,17.1,30.22,West,270,6.0,11.0,34,0.00,,,0.00,meteohub,2013-03-27 21:14:00,
2013-03-27 16:20:00,43.9,18.0,30.22,West,270,5.0,11.0,35,0.00,,,0.00,meteohub,2013-03-27 21:20:00,
2013-03-27 16:25:00,44.1,18.1,30.22,NW,315,6.0,11.0,35,0.00,,,0.00,meteohub,2013-03-27 21:25:00,
2013-03-27 16:30:00,43.9,18.0,30.22,North,0,10.0,11.0,35,0.00,,,0.00,meteohub,2013-03-27 21:30:00,
2013-03-27 16:35:00,43.5,18.3,30.22,North,0,6.0,8.0,36,0.00,,,0.00,meteohub,2013-03-27 21:35:00,
2013-03-27 16:40:00,43.5,19.6,30.22,North,0,4.0,11.0,38,0.00,,,0.00,meteohub,2013-03-27 21:40:00,
2013-03-27 16:46:00,43.3,18.1,30.22,NW,315,4.0,11.0,36,0.00,,,0.00,meteohub,2013-03-27 21:46:00,
2013-03-27 16:51:00,43.2,18.0,30.22,North,0,4.0,9.0,36,0.00,,,0.00,meteohub,2013-03-27 21:51:00,
2013-03-27 16:56:00,43.5,18.3,30.22,NW,315,11.0,11.0,36,0.00,,,0.00,meteohub,2013-03-27 21:56:00,
2013-03-27 17:01:00,43.2,18.0,30.22,North,0,13.0,13.0,36,0.00,,,0.00,meteohub,2013-03-27 22:01:00,
2013-03-27 17:06:00,42.8,17.1,30.23,West,270,8.0,13.0,35,0.00,,,0.00,meteohub,2013-03-27 22:06:00,
2013-03-27 17:12:00,43.0,18.5,30.22,North,0,6.0,13.0,37,0.00,,,0.00,meteohub,2013-03-27 22:12:00,
2013-03-27 17:17:00,43.2,18.0,30.22,North,0,7.0,13.0,36,0.00,,,0.00,meteohub,2013-03-27 22:17:00,
2013-03-27 17:22:00,42.6,18.1,30.23,North,0,7.0,11.0,37,0.00,,,0.00,meteohub,2013-03-27 22:22:00,
2013-03-27 17:27:00,42.6,18.1,30.22,North,0,8.0,10.0,37,0.00,,,0.00,meteohub,2013-03-27 22:27:00,
2013-03-27 17:32:00,42.6,18.1,30.22,North,0,8.0,10.0,37,0.00,,,0.00,meteohub,2013-03-27 22:32:00,
2013-03-27 17:37:00,42.8,18.3,30.23,NW,315,4.0,10.0,37,0.00,,,0.00,meteohub,2013-03-27 22:37:00,
2013-03-27 17:42:00,43.0,18.5,30.22,North,0,6.0,10.0,37,0.00,,,0.00,meteohub,2013-03-27 22:42:00,
2013-03-27 17:47:00,43.0,17.8,30.23,North,0,5.0,10.0,36,0.00,,,0.00,meteohub,2013-03-27 22:47:00,
2013-03-27 17:53:00,42.6,18.1,30.23,NW,315,10.0,10.0,37,0.00,,,0.00,meteohub,2013-03-27 22:53:00,
2013-03-27 17:58:00,42.3,17.2,30.23,North,0,8.0,10.0,36,0.00,,,0.00,meteohub,2013-03-27 22:58:00,
2013-03-27 18:03:00,42.3,17.8,30.23,North,0,6.0,11.0,37,0.00,,,0.00,meteohub,2013-03-27 23:03:00,
2013-03-27 18:08:00,42.4,18.0,30.22,North,0,8.0,11.0,37,0.00,,,0.00,meteohub,2013-03-27 23:08:00,
2013-03-27 18:13:00,42.1,17.6,30.22,North,0,5.0,11.0,37,0.00,,,0.00,meteohub,2013-03-27 23:13:00,
2013-03-27 18:18:00,42.1,18.3,30.22,NW,315,7.0,8.0,38,0.00,,,0.00,meteohub,2013-03-27 23:18:00,
2013-03-27 18:23:00,41.7,18.5,30.22,North,0,5.0,8.0,39,0.00,,,0.00,meteohub,2013-03-27 23:23:00,
2013-03-27 18:28:00,41.5,18.5,30.22,North,0,3.0,8.0,39,0.00,,,0.00,meteohub,2013-03-27 23:28:00,
2013-03-27 18:34:00,41.4,18.9,30.22,NW,315,3.0,8.0,40,0.00,,,0.00,meteohub,2013-03-27 23:34:00,
2013-03-27 18:39:00,41.2,19.2,30.22,NW,315,4.0,8.0,41,0.00,,,0.00,meteohub,2013-03-27 23:39:00,
2013-03-27 18:44:00,41.0,19.6,30.22,North,0,5.0,7.0,42,0.00,,,0.00,meteohub,2013-03-27 23:44:00,
2013-03-27 18:49:00,40.6,20.5,30.22,North,0,3.0,7.0,44,0.00,,,0.00,meteohub,2013-03-27 23:49:00,
2013-03-27 18:54:00,40.3,20.1,30.22,North,0,3.0,7.0,44,0.00,,,0.00,meteohub,2013-03-27 23:54:00,
2013-03-27 18:59:00,39.9,19.8,30.22,North,0,4.0,6.0,44,0.00,,,0.00,meteohub,2013-03-27 23:59:00,
2013-03-27 19:04:00,39.6,19.4,30.22,NW,315,4.0,6.0,44,0.00,,,0.00,meteohub,2013-03-28 00:04:00,
2013-03-27 19:10:00,39.2,19.0,30.22,North,0,3.0,6.0,44,0.00,,,0.00,meteohub,2013-03-28 00:10:00,
2013-03-27 19:15:00,38.8,19.4,30.22,North,0,3.0,6.0,45,0.00,,,0.00,meteohub,2013-03-28 00:15:00,
2013-03-27 19:20:00,38.7,19.2,30.22,North,0,2.0,6.0,45,0.00,,,0.00,meteohub,2013-03-28 00:20:00,
2013-03-27 19:25:00,38.3,18.9,30.22,NE,45,2.0,4.0,45,0.00,,,0.00,meteohub,2013-03-28 00:25:00,
2013-03-27 19:30:00,38.1,19.2,30.22,NE,45,3.0,4.0,46,0.00,,,0.00,meteohub,2013-03-28 00:30:00,
2013-03-27 19:35:00,37.8,18.9,30.22,NE,45,3.0,4.0,46,0.00,,,0.00,meteohub,2013-03-28 00:35:00,
2013-03-27 19:40:00,37.6,19.2,30.22,NE,45,2.0,4.0,47,0.00,,,0.00,meteohub,2013-03-28 00:40:00,
2013-03-27 19:45:00,37.2,16.7,30.22,North,0,3.0,4.0,43,0.00,,,0.00,meteohub,2013-03-28 00:45:00,
2013-03-27 19:50:00,37.2,16.7,30.22,NE,45,2.0,4.0,43,0.00,,,0.00,meteohub,2013-03-28 00:50:00,
2013-03-27 19:55:00,37.0,16.7,30.22,NE,45,2.0,3.0,43,0.00,,,0.00,meteohub,2013-03-28 00:55:00,
2013-03-27 20:01:00,36.9,16.5,30.22,NE,45,3.0,3.0,43,0.00,,,0.00,meteohub,2013-03-28 01:01:00,
2013-03-27 20:06:00,36.9,17.1,30.22,NE,45,2.0,3.0,44,0.00,,,0.00,meteohub,2013-03-28 01:06:00,
2013-03-27 20:11:00,36.9,16.5,30.22,NE,45,2.0,3.0,43,0.00,,,0.00,meteohub,2013-03-28 01:11:00,
2013-03-27 20:16:00,36.7,16.3,30.21,NE,45,2.0,3.0,43,0.00,,,0.00,meteohub,2013-03-28 01:16:00,
2013-03-27 20:21:00,36.7,16.3,30.21,North,0,2.0,3.0,43,0.00,,,0.00,meteohub,2013-03-28 01:21:00,
2013-03-27 20:27:00,36.7,16.3,30.21,NE,45,2.0,3.0,43,0.00,,,0.00,meteohub,2013-03-28 01:27:00,
2013-03-27 20:32:00,36.5,16.2,30.21,NE,45,2.0,2.0,43,0.00,,,0.00,meteohub,2013-03-28 01:32:00,
2013-03-27 20:37:00,36.3,16.0,30.21,NE,45,1.0,2.0,43,0.00,,,0.00,meteohub,2013-03-28 01:37:00,
2013-03-27 20:42:00,36.1,15.8,30.21,NE,45,1.0,2.0,43,0.00,,,0.00,meteohub,2013-03-28 01:42:00,
2013-03-27 20:47:00,36.1,15.8,30.20,NE,45,2.0,2.0,43,0.00,,,0.00,meteohub,2013-03-28 01:47:00,
2013-03-27 20:52:00,36.1,15.8,30.20,NE,45,2.0,2.0,43,0.00,,,0.00,meteohub,2013-03-28 01:52:00,
2013-03-27 20:57:00,36.1,15.8,30.21,NE,45,0.0,2.0,43,0.00,,,0.00,meteohub,2013-03-28 01:57:00,
2013-03-27 21:03:00,36.1,15.8,30.21,NE,45,1.0,2.0,43,0.00,,,0.00,meteohub,2013-03-28 02:03:00,
2013-03-27 21:08:00,36.0,15.6,30.20,South,180,2.0,2.0,43,0.00,,,0.00,meteohub,2013-03-28 02:08:00,
2013-03-27 21:13:00,35.8,16.0,30.21,South,180,2.0,2.0,44,0.00,,,0.00,meteohub,2013-03-28 02:13:00,
2013-03-27 21:18:00,36.0,16.2,30.20,South,180,2.0,3.0,44,0.00,,,0.00,meteohub,2013-03-28 02:18:00,
2013-03-27 21:23:00,36.1,16.3,30.20,South,180,3.0,3.0,44,0.00,,,0.00,meteohub,2013-03-28 02:23:00,
2013-03-27 21:28:00,36.3,16.5,30.20,South,180,2.0,3.0,44,0.00,,,0.00,meteohub,2013-03-28 02:28:00,
2013-03-27 21:33:00,36.3,16.5,30.20,South,180,2.0,3.0,44,0.00,,,0.00,meteohub,2013-03-28 02:33:00,
2013-03-27 21:39:00,36.1,16.3,30.20,South,180,2.0,3.0,44,0.00,,,0.00,meteohub,2013-03-28 02:39:00,
2013-03-27 21:44:00,36.1,16.3,30.20,SW,225,2.0,3.0,44,0.00,,,0.00,meteohub,2013-03-28 02:44:00,
2013-03-27 21:49:00,36.3,16.5,30.21,SW,225,3.0,3.0,44,0.00,,,0.00,meteohub,2013-03-28 02:49:00,
2013-03-27 21:54:00,36.3,16.5,30.20,West,270,2.0,3.0,44,0.00,,,0.00,meteohub,2013-03-28 02:54:00,
2013-03-27 21:59:00,36.1,16.3,30.20,West,270,2.0,3.0,44,0.00,,,0.00,meteohub,2013-03-28 02:59:00,
2013-03-27 22:04:00,35.8,16.0,30.21,NW,315,2.0,3.0,44,0.00,,,0.00,meteohub,2013-03-28 03:04:00,
2013-03-27 22:09:00,35.4,16.7,30.21,West,270,3.0,3.0,46,0.00,,,0.00,meteohub,2013-03-28 03:09:00,
2013-03-27 22:15:00,35.8,16.5,30.20,West,270,2.0,3.0,45,0.00,,,0.00,meteohub,2013-03-28 03:15:00,
2013-03-27 22:20:00,36.1,16.3,30.20,West,270,1.0,3.0,44,0.00,,,0.00,meteohub,2013-03-28 03:20:00,
2013-03-27 22:25:00,36.1,16.3,30.19,West,270,1.0,3.0,44,0.00,,,0.00,meteohub,2013-03-28 03:25:00,
2013-03-27 22:30:00,36.3,16.0,30.19,NW,315,2.0,2.0,43,0.00,,,0.00,meteohub,2013-03-28 03:30:00,
2013-03-27 22:35:00,36.1,15.8,30.19,NW,315,2.0,2.0,43,0.00,,,0.00,meteohub,2013-03-28 03:35:00,
2013-03-27 22:40:00,36.1,15.8,30.19,NW,315,2.0,2.0,43,0.00,,,0.00,meteohub,2013-03-28 03:40:00,
2013-03-27 22:45:00,36.1,15.8,30.19,NW,315,2.0,2.0,43,0.00,,,0.00,meteohub,2013-03-28 03:45:00,
2013-03-27 22:50:00,36.1,15.8,30.19,NW,315,2.0,2.0,43,0.00,,,0.00,meteohub,2013-03-28 03:50:00,
2013-03-27 22:56:00,36.3,16.5,30.19,West,270,2.0,3.0,44,0.00,,,0.00,meteohub,2013-03-28 03:56:00,
2013-03-27 23:00:00,36.3,16.5,30.19,NW,315,1.0,3.0,44,0.00,,,0.00,meteohub,2013-03-28 04:00:00,
2013-03-27 23:02:00,36.3,16.5,30.19,NW,315,1.0,3.0,44,0.00,,,0.00,meteohub,2013-03-28 04:02:00,
2013-03-27 23:03:00,36.3,16.5,30.19,NW,315,1.0,3.0,44,0.00,,,0.00,meteohub,2013-03-28 04:03:00,
2013-03-27 23:07:00,36.3,16.5,30.19,NW,315,1.0,3.0,44,0.00,,,0.00,meteohub,2013-03-28 04:07:00,
2013-03-27 23:12:00,36.0,16.2,30.19,NW,315,2.0,2.0,44,0.00,,,0.00,meteohub,2013-03-28 04:12:00,
2013-03-27 23:17:00,35.8,16.0,30.19,NW,315,2.0,2.0,44,0.00,,,0.00,meteohub,2013-03-28 04:17:00,
2013-03-27 23:22:00,35.8,16.0,30.19,NW,315,2.0,3.0,44,0.00,,,0.00,meteohub,2013-03-28 04:22:00,
2013-03-27 23:27:00,35.8,16.0,30.19,NW,315,2.0,3.0,44,0.00,,,0.00,meteohub,2013-03-28 04:27:00,
2013-03-27 23:32:00,35.6,15.8,30.19,West,270,2.0,3.0,44,0.00,,,0.00,meteohub,2013-03-28 04:32:00,
2013-03-27 23:37:00,35.4,15.6,30.19,NW,315,2.0,2.0,44,0.00,,,0.00,meteohub,2013-03-28 04:37:00,
2013-03-27 23:42:00,35.2,15.4,30.19,NW,315,2.0,2.0,44,0.00,,,0.00,meteohub,2013-03-28 04:42:00,
2013-03-27 23:47:00,35.2,15.4,30.19,NW,315,3.0,3.0,44,0.00,,,0.00,meteohub,2013-03-28 04:47:00,
2013-03-27 23:52:00,35.1,15.3,30.19,North,0,3.0,3.0,44,0.00,,,0.00,meteohub,2013-03-28 04:52:00,
2013-03-27 23:58:00,35.1,15.8,30.19,NW,315,3.0,4.0,45,0.00,,,0.00,meteohub,2013-03-28 04:58:00,